Hourly Weather Bolshie Orly

Today, 23 June, Wednesday

Time Temperature Precipitation Wind Pressure Humidity
00:00 +21°C° 0 mm 2 mps 749 mmHg 80%
01:00 +21°C° 0 mm 2 mps 749 mmHg 85%
02:00 +20°C° 0 mm 2 mps 749 mmHg 89%
03:00 +20°C° 0 mm 2 mps 749 mmHg 89%
04:00 +20°C° 0 mm 2 mps 749 mmHg 89%
05:00 +21°C° 0 mm 2 mps 749 mmHg 89%
06:00 +23°C° 0 mm 2 mps 749 mmHg 83%
07:00 +25°C° 0 mm 2 mps 750 mmHg 77%
08:00 +27°C° 0 mm 2 mps 750 mmHg 70%
09:00 +28°C° 0 mm 2 mps 750 mmHg 65%
10:00 +30°C° 0 mm 2 mps 751 mmHg 59%
11:00 +31°C° 0 mm 2 mps 751 mmHg 53%
12:00 +32°C° 0 mm 2 mps 751 mmHg 49%
13:00 +34°C° 0 mm 2 mps 751 mmHg 45%
14:00 +35°C° 0 mm 2 mps 751 mmHg 40%
15:00 +35°C° 0 mm 2 mps 750 mmHg 41%
16:00 +35°C° 0 mm 1 mps 750 mmHg 42%
17:00 +35°C° 0 mm 1 mps 750 mmHg 43%
18:00 +32°C° 0 mm 2 mps 750 mmHg 51%
19:00 +30°C° 0 mm 2 mps 750 mmHg 59%
20:00 +28°C° 0 mm 2 mps 750 mmHg 67%
21:00 +27°C° 0 mm 2 mps 750 mmHg 69%
22:00 +26°C° 0 mm 2 mps 751 mmHg 71%
23:00 +25°C° 0 mm 2 mps 751 mmHg 73%

Tomorrow, 24 June, Thursday

Time Temperature Precipitation Wind Pressure Humidity
00:00 +25°C° 0 mm 2 mps 751 mmHg 77%
01:00 +24°C° 0 mm 2 mps 751 mmHg 81%
02:00 +23°C° 0 mm 1 mps 751 mmHg 85%
03:00 +23°C° 0 mm 1 mps 751 mmHg 87%
04:00 +23°C° 0 mm 2 mps 751 mmHg 88%
05:00 +23°C° 0 mm 2 mps 751 mmHg 90%
06:00 +25°C° 0 mm 2 mps 751 mmHg 83%
07:00 +26°C° 0 mm 2 mps 751 mmHg 76%
08:00 +28°C° 0 mm 2 mps 751 mmHg 69%
09:00 +29°C° 0 mm 2 mps 751 mmHg 63%
10:00 +31°C° 0 mm 2 mps 751 mmHg 57%
11:00 +32°C° 0 mm 2 mps 751 mmHg 51%
12:00 +34°C° 0 mm 2 mps 751 mmHg 47%
13:00 +35°C° 0 mm 2 mps 750 mmHg 44%
14:00 +36°C° 0 mm 2 mps 750 mmHg 41%
15:00 +36°C° 0 mm 2 mps 750 mmHg 42%
16:00 +36°C° 0 mm 2 mps 749 mmHg 43%
17:00 +36°C° 0 mm 2 mps 749 mmHg 44%
18:00 +31°C° 1.1 mm 2 mps 749 mmHg 56%
19:00 +28°C° 1.1 mm 2 mps 749 mmHg 68%
20:00 +25°C° 1.1 mm 3 mps 749 mmHg 80%
21:00 +24°C° 1.2 mm 2 mps 749 mmHg 82%
22:00 +24°C° 1.2 mm 1 mps 749 mmHg 84%
23:00 +23°C° 1.2 mm 1 mps 749 mmHg 86%

Day after tomorrow, 25 June, Friday

Time Temperature Precipitation Wind Pressure Humidity
00:00 +23°C° 0.2 mm 1 mps 749 mmHg 87%
01:00 +23°C° 0.2 mm 1 mps 749 mmHg 89%
02:00 +23°C° 0.2 mm 2 mps 749 mmHg 90%
03:00 +23°C° 0 mm 2 mps 749 mmHg 91%
04:00 +23°C° 0 mm 2 mps 748 mmHg 91%
05:00 +23°C° 0 mm 2 mps 748 mmHg 92%
06:00 +25°C° 0 mm 2 mps 748 mmHg 86%
07:00 +26°C° 0 mm 2 mps 748 mmHg 81%
08:00 +28°C° 0 mm 3 mps 748 mmHg 75%
09:00 +29°C° 0 mm 3 mps 748 mmHg 68%
10:00 +31°C° 0 mm 3 mps 748 mmHg 60%
11:00 +34°C° 0 mm 4 mps 748 mmHg 53%
12:00 +34°C° 0 mm 4 mps 748 mmHg 49%
13:00 +35°C° 0 mm 4 mps 748 mmHg 45%
14:00 +36°C° 0 mm 4 mps 748 mmHg 41%
15:00 +35°C° 0.1 mm 3 mps 747 mmHg 44%
16:00 +35°C° 0.1 mm 3 mps 747 mmHg 48%
17:00 +34°C° 0.1 mm 3 mps 746 mmHg 52%
18:00 +29°C° 4.2 mm 3 mps 747 mmHg 65%
19:00 +24°C° 4.2 mm 3 mps 747 mmHg 78%
20:00 +19°C° 4.2 mm 3 mps 748 mmHg 92%
21:00 +19°C° 0.6 mm 3 mps 748 mmHg 93%
22:00 +19°C° 0.6 mm 2 mps 747 mmHg 94%
23:00 +19°C° 0.6 mm 2 mps 747 mmHg 94%

26 June, Saturday

Time Temperature Precipitation Wind Pressure Humidity
00:00 +19°C° 0 mm 2 mps 747 mmHg 94%
01:00 +18°C° 0 mm 2 mps 748 mmHg 94%
02:00 +18°C° 0 mm 2 mps 748 mmHg 94%
03:00 +18°C° 0.1 mm 2 mps 748 mmHg 95%
04:00 +18°C° 0.1 mm 2 mps 748 mmHg 95%
05:00 +18°C° 0.1 mm 2 mps 748 mmHg 96%
06:00 +19°C° 0 mm 2 mps 748 mmHg 93%
07:00 +20°C° 0 mm 3 mps 748 mmHg 90%
08:00 +21°C° 0 mm 3 mps 749 mmHg 87%
09:00 +22°C° 0.1 mm 3 mps 749 mmHg 81%
10:00 +24°C° 0.1 mm 3 mps 749 mmHg 75%
11:00 +25°C° 0.1 mm 3 mps 749 mmHg 68%
12:00 +26°C° 0 mm 4 mps 749 mmHg 66%
13:00 +26°C° 0 mm 4 mps 749 mmHg 63%
14:00 +26°C° 0 mm 5 mps 749 mmHg 60%
15:00 +25°C° 0 mm 4 mps 749 mmHg 64%
16:00 +23°C° 0 mm 4 mps 749 mmHg 67%
17:00 +23°C° 0 mm 4 mps 749 mmHg 70%
18:00 +22°C° 0 mm 3 mps 749 mmHg 74%
19:00 +21°C° 0 mm 3 mps 749 mmHg 78%
20:00 +20°C° 0 mm 3 mps 749 mmHg 82%
21:00 +19°C° 0 mm 3 mps 749 mmHg 86%
22:00 +18°C° 0 mm 2 mps 750 mmHg 89%
23:00 +17°C° 0 mm 2 mps 750 mmHg 93%

27 June, Sunday

Time Temperature Precipitation Wind Pressure Humidity
00:00 +17°C° 0 mm 2 mps 750 mmHg 93%
01:00 +16°C° 0 mm 2 mps 750 mmHg 94%
02:00 +16°C° 0 mm 2 mps 750 mmHg 94%
03:00 +16°C° 0 mm 2 mps 750 mmHg 94%
04:00 +16°C° 0 mm 2 mps 750 mmHg 94%
05:00 +16°C° 0 mm 2 mps 750 mmHg 94%
06:00 +18°C° 0 mm 2 mps 750 mmHg 88%
07:00 +19°C° 0 mm 3 mps 750 mmHg 83%
08:00 +21°C° 0 mm 3 mps 750 mmHg 77%
09:00 +22°C° 0.1 mm 3 mps 750 mmHg 73%
10:00 +24°C° 0.1 mm 3 mps 750 mmHg 68%
11:00 +25°C° 0.1 mm 3 mps 750 mmHg 63%
12:00 +25°C° 0.1 mm 4 mps 750 mmHg 63%
13:00 +25°C° 0.1 mm 4 mps 750 mmHg 63%
14:00 +25°C° 0.1 mm 4 mps 751 mmHg 63%
15:00 +25°C° 0 mm 4 mps 750 mmHg 62%
16:00 +25°C° 0 mm 4 mps 750 mmHg 60%
17:00 +25°C° 0 mm 3 mps 750 mmHg 59%
18:00 +24°C° 0 mm 3 mps 750 mmHg 66%
19:00 +21°C° 0 mm 2 mps 750 mmHg 73%
20:00 +20°C° 0 mm 2 mps 750 mmHg 79%
21:00 +19°C° 0 mm 2 mps 750 mmHg 82%
22:00 +18°C° 0 mm 2 mps 751 mmHg 85%
23:00 +17°C° 0 mm 2 mps 751 mmHg 87%

28 June, Monday

Time Temperature Precipitation Wind Pressure Humidity
00:00 +17°C° 0 mm 2 mps 751 mmHg 89%
01:00 +16°C° 0 mm 2 mps 751 mmHg 90%
02:00 +16°C° 0 mm 2 mps 751 mmHg 91%
03:00 +16°C° 0 mm 2 mps 751 mmHg 91%
04:00 +16°C° 0 mm 2 mps 751 mmHg 91%
05:00 +16°C° 0 mm 2 mps 751 mmHg 91%
06:00 +18°C° 0 mm 2 mps 751 mmHg 84%
07:00 +19°C° 0 mm 2 mps 751 mmHg 77%
08:00 +21°C° 0 mm 3 mps 751 mmHg 70%
09:00 +24°C° 0 mm 3 mps 751 mmHg 65%
10:00 +25°C° 0 mm 3 mps 751 mmHg 59%
11:00 +26°C° 0 mm 4 mps 751 mmHg 54%
12:00 +26°C° 0 mm 4 mps 751 mmHg 53%
13:00 +27°C° 0 mm 4 mps 751 mmHg 52%
14:00 +27°C° 0 mm 4 mps 750 mmHg 52%
15:00 +26°C° 0 mm 3 mps 750 mmHg 56%
16:00 +26°C° 0 mm 3 mps 750 mmHg 61%
17:00 +25°C° 0 mm 2 mps 750 mmHg 65%
18:00 +24°C° 0 mm 2 mps 750 mmHg 68%
19:00 +23°C° 0 mm 2 mps 750 mmHg 71%
20:00 +21°C° 0 mm 2 mps 750 mmHg 73%
21:00 +21°C° 0 mm 2 mps 750 mmHg 74%
22:00 +20°C° 0 mm 2 mps 750 mmHg 75%
23:00 +19°C° 0 mm 2 mps 750 mmHg 76%
Show more